Location: Peebles
(55.6412°N, 3.1714°W)
Time: 23:46:51
(UTC+01:00)

CENTAUR R/B - Pass Details

Date: 25 January 2022
Orbit: 716 x 1471 km, 63.4° (Epoch: 08 May)

Event Time Altitude Azimuth Distance (km) Brightness Sun altitude
Rises 17:50:01 0° 248° (WSW) 3,541 7.7 -10.7°
Reaches altitude 10° 17:52:22 10° 252° (WSW) 2,695 6.4 -11.0°
Maximum altitude 17:58:44 64° 334° (NNW) 1,213 3.0 -11.8°
Enters shadow 18:05:35 14° 54° (NE) 2,953 4.4 -12.8°
